Time,TemperatureF,DewpointF,PressureIn,WindDirection,WindDirectionDegrees,WindSpeedMPH,WindSpeedGustMPH,Humidity,HourlyPrecipIn,Conditions,Clouds,dailyrainin,SoftwareType,DateUTC
2013-05-28 00:03:00,54.0,54.0,29.98,East,90,2.0,8.0,100,0.00,,,0.50,,2013-05-28 04:03:00,
2013-05-28 00:13:00,55.0,55.0,29.98,East,90,4.0,7.0,100,0.00,,,0.51,,2013-05-28 04:13:00,
2013-05-28 00:22:00,55.0,55.0,29.98,East,90,4.0,7.0,100,0.00,,,0.51,,2013-05-28 04:22:00,
2013-05-28 00:33:00,55.0,55.0,29.97,East,90,2.0,5.0,100,0.00,,,0.51,,2013-05-28 04:33:00,
2013-05-28 00:43:00,55.0,55.0,29.97,East,90,2.0,5.0,100,0.00,,,0.51,,2013-05-28 04:43:00,
2013-05-28 00:52:00,55.0,55.0,29.97,East,90,0.0,0.0,100,0.00,,,0.51,,2013-05-28 04:52:00,
2013-05-28 01:02:00,55.0,55.0,29.96,ENE,67,0.0,0.0,100,0.00,,,0.51,,2013-05-28 05:02:00,
2013-05-28 01:12:00,56.0,56.0,29.96,NE,45,0.0,0.0,100,0.00,,,0.51,,2013-05-28 05:12:00,
2013-05-28 01:22:00,56.0,56.0,29.96,NE,45,0.0,0.0,100,0.00,,,0.51,,2013-05-28 05:22:00,
2013-05-28 01:33:00,56.0,56.0,29.95,East,90,0.0,0.0,100,0.00,,,0.51,,2013-05-28 05:33:00,
2013-05-28 01:42:00,56.0,56.0,29.95,East,90,0.0,0.0,100,0.00,,,0.51,,2013-05-28 05:42:00,
2013-05-28 01:52:00,56.0,56.0,29.95,ESE,112,0.0,0.0,100,0.00,,,0.51,,2013-05-28 05:52:00,
2013-05-28 02:02:00,56.0,56.0,29.96,East,90,0.0,0.0,100,0.00,,,0.51,,2013-05-28 06:02:00,
2013-05-28 02:12:00,56.0,56.0,29.96,East,90,0.0,0.0,100,0.00,,,0.51,,2013-05-28 06:12:00,
2013-05-28 02:22:00,56.0,56.0,29.96,East,90,0.0,0.0,100,0.00,,,0.51,,2013-05-28 06:22:00,
2013-05-28 02:32:00,56.0,56.0,29.96,East,90,0.0,0.0,100,0.00,,,0.51,,2013-05-28 06:32:00,
2013-05-28 02:42:00,56.0,56.0,29.96,East,90,0.0,0.0,100,0.00,,,0.51,,2013-05-28 06:42:00,
2013-05-28 02:51:00,56.0,56.0,29.96,East,90,0.0,0.0,100,0.00,,,0.51,,2013-05-28 06:51:00,
2013-05-28 03:11:00,57.0,57.0,29.96,South,180,0.0,0.0,100,0.00,,,0.51,,2013-05-28 07:11:00,
2013-05-28 03:22:00,57.0,57.0,29.96,South,180,0.0,0.0,100,0.00,,,0.51,,2013-05-28 07:22:00,
2013-05-28 03:32:00,58.0,58.0,29.95,East,90,0.0,0.0,100,0.00,,,0.51,,2013-05-28 07:32:00,
2013-05-28 03:42:00,58.0,58.0,29.95,East,90,0.0,0.0,100,0.00,,,0.51,,2013-05-28 07:42:00,
2013-05-28 03:52:00,58.0,58.0,29.94,East,90,0.0,0.0,100,0.00,,,0.51,,2013-05-28 07:52:00,
2013-05-28 04:02:00,58.0,58.0,29.93,West,270,0.0,3.0,100,0.00,,,0.51,,2013-05-28 08:02:00,
2013-05-28 04:12:00,58.0,58.0,29.93,West,270,0.0,3.0,100,0.00,,,0.51,,2013-05-28 08:12:00,
2013-05-28 04:22:00,58.0,58.0,29.94,SW,225,0.0,0.0,100,0.00,,,0.51,,2013-05-28 08:22:00,
2013-05-28 04:32:00,59.0,59.0,29.93,SW,225,1.0,4.0,100,0.00,,,0.51,,2013-05-28 08:32:00,
2013-05-28 04:42:00,59.0,59.0,29.93,SW,225,1.0,4.0,100,0.00,,,0.51,,2013-05-28 08:42:00,
2013-05-28 04:52:00,61.0,61.0,29.93,SW,225,3.0,7.0,100,0.00,,,0.52,,2013-05-28 08:52:00,
2013-05-28 05:01:00,61.0,61.0,29.93,SW,225,4.0,10.0,100,0.00,,,0.55,,2013-05-28 09:01:00,
2013-05-28 05:11:00,62.0,62.0,29.92,SW,225,3.0,9.0,100,0.00,,,0.59,,2013-05-28 09:11:00,
2013-05-28 05:21:00,62.0,62.0,29.92,SW,225,3.0,9.0,100,0.00,,,0.59,,2013-05-28 09:21:00,
2013-05-28 05:33:00,62.0,62.0,29.94,WSW,247,3.0,5.0,100,0.00,,,0.64,,2013-05-28 09:33:00,
2013-05-28 05:43:00,62.0,62.0,29.94,WSW,247,3.0,5.0,100,0.00,,,0.64,,2013-05-28 09:43:00,
2013-05-28 05:54:00,62.0,62.0,29.95,WSW,247,1.0,0.0,100,0.00,,,0.69,,2013-05-28 09:54:00,
2013-05-28 06:03:00,62.0,62.0,29.94,WSW,247,0.0,3.0,100,0.00,,,0.73,,2013-05-28 10:03:00,
2013-05-28 06:12:00,62.0,62.0,29.94,WSW,247,0.0,3.0,100,0.00,,,0.73,,2013-05-28 10:12:00,
2013-05-28 06:23:00,62.0,62.0,29.95,WSW,247,0.0,0.0,100,0.00,,,0.81,,2013-05-28 10:23:00,
2013-05-28 06:32:00,62.0,62.0,29.94,West,270,0.0,0.0,100,0.00,,,0.81,,2013-05-28 10:32:00,
2013-05-28 06:42:00,62.0,62.0,29.94,West,270,0.0,0.0,100,0.00,,,0.81,,2013-05-28 10:42:00,
2013-05-28 06:53:00,62.0,62.0,29.93,South,180,0.0,0.0,100,0.00,,,0.82,,2013-05-28 10:53:00,
2013-05-28 07:02:00,62.0,62.0,29.94,SSE,157,0.0,0.0,100,0.00,,,0.81,,2013-05-28 11:02:00,
2013-05-28 07:11:00,62.0,62.0,29.94,SSE,157,0.0,0.0,100,0.00,,,0.81,,2013-05-28 11:11:00,
2013-05-28 07:22:00,62.0,62.0,29.94,North,360,0.0,0.0,100,0.00,,,0.79,,2013-05-28 11:22:00,
2013-05-28 07:32:00,62.0,62.0,29.93,SSE,157,0.0,0.0,100,0.00,,,0.77,,2013-05-28 11:32:00,
2013-05-28 07:42:00,62.0,62.0,29.93,SSE,157,0.0,0.0,100,0.00,,,0.77,,2013-05-28 11:42:00,
2013-05-28 07:52:00,62.0,62.0,29.94,SW,225,0.0,0.0,100,0.00,,,0.75,,2013-05-28 11:52:00,
2013-05-28 08:01:00,63.0,63.0,29.92,SSE,157,0.0,0.0,100,0.00,,,0.73,,2013-05-28 12:01:00,
2013-05-28 08:11:00,63.0,63.0,29.92,SSE,157,0.0,0.0,100,0.00,,,0.73,,2013-05-28 12:11:00,
2013-05-28 08:21:00,63.0,63.0,29.92,West,270,1.0,0.0,100,0.00,,,0.72,,2013-05-28 12:21:00,
2013-05-28 08:32:00,64.0,64.0,29.93,SSW,202,1.0,3.0,100,0.00,,,0.70,,2013-05-28 12:32:00,
2013-05-28 08:42:00,64.0,64.0,29.93,SSW,202,1.0,3.0,100,0.00,,,0.70,,2013-05-28 12:42:00,
2013-05-28 08:52:00,64.0,64.0,29.93,South,180,0.0,0.0,100,0.00,,,0.69,,2013-05-28 12:52:00,
2013-05-28 09:01:00,64.0,64.0,29.93,South,180,1.0,5.0,100,0.00,,,0.68,,2013-05-28 13:01:00,
2013-05-28 09:11:00,64.0,64.0,29.93,NNE,22,1.0,5.0,100,0.00,,,0.67,,2013-05-28 13:11:00,
2013-05-28 09:21:00,64.0,64.0,29.93,NNE,22,1.0,5.0,100,0.00,,,0.67,,2013-05-28 13:21:00,
2013-05-28 09:32:00,65.0,65.0,29.91,SW,225,0.0,0.0,100,0.00,,,0.66,,2013-05-28 13:32:00,
2013-05-28 09:42:00,65.0,65.0,29.91,SW,225,0.0,0.0,100,0.00,,,0.66,,2013-05-28 13:42:00,
2013-05-28 09:52:00,65.0,65.0,29.91,SE,135,1.0,4.0,100,0.00,,,0.65,,2013-05-28 13:52:00,
2013-05-28 10:02:00,67.0,67.0,29.89,East,90,2.0,3.0,100,0.00,,,0.63,,2013-05-28 14:02:00,
2013-05-28 10:12:00,67.0,67.0,29.89,East,90,2.0,3.0,100,0.00,,,0.63,,2013-05-28 14:12:00,
2013-05-28 10:21:00,69.0,69.0,29.88,WSW,247,3.0,6.0,100,0.00,,,0.61,,2013-05-28 14:21:00,
2013-05-28 10:32:00,70.0,70.0,29.87,WSW,247,3.0,6.0,100,0.00,,,0.59,,2013-05-28 14:32:00,
2013-05-28 10:42:00,70.0,70.0,29.87,WSW,247,3.0,6.0,100,0.00,,,0.59,,2013-05-28 14:42:00,
2013-05-28 10:52:00,70.0,70.0,29.88,WSW,247,3.0,4.0,100,0.00,,,0.59,,2013-05-28 14:52:00,
2013-05-28 11:01:00,70.0,70.0,29.88,WSW,247,3.0,4.0,100,0.00,,,0.59,,2013-05-28 15:01:00,
2013-05-28 11:11:00,71.0,71.0,29.87,SW,225,3.0,10.0,100,0.00,,,0.59,,2013-05-28 15:11:00,
2013-05-28 11:21:00,71.0,71.0,29.87,SW,225,3.0,10.0,100,0.00,,,0.59,,2013-05-28 15:21:00,
2013-05-28 11:33:00,72.0,72.0,29.87,WSW,247,4.0,7.0,99,0.00,,,0.59,,2013-05-28 15:33:00,
2013-05-28 11:43:00,72.0,72.0,29.87,WSW,247,4.0,7.0,99,0.00,,,0.59,,2013-05-28 15:43:00,
2013-05-28 11:53:00,72.0,72.0,29.87,WSW,247,4.0,7.0,99,0.00,,,0.59,,2013-05-28 15:53:00,
2013-05-28 12:03:00,72.0,72.0,29.87,WSW,247,4.0,7.0,99,0.00,,,0.59,,2013-05-28 16:03:00,
2013-05-28 12:13:00,72.0,72.0,29.87,WSW,247,4.0,7.0,99,0.00,,,0.59,,2013-05-28 16:13:00,
2013-05-28 12:33:00,75.0,73.0,29.85,WNW,292,5.0,5.0,93,0.00,,,0.59,,2013-05-28 16:33:00,
2013-05-28 12:42:00,75.0,73.0,29.85,WNW,292,5.0,5.0,93,0.00,,,0.59,,2013-05-28 16:42:00,
2013-05-28 12:53:00,75.0,73.0,29.85,West,270,4.0,8.0,92,0.00,,,0.59,,2013-05-28 16:53:00,
2013-05-28 13:02:00,74.0,72.0,29.84,WSW,247,4.0,13.0,92,0.00,,,0.59,,2013-05-28 17:02:00,
2013-05-28 13:12:00,74.0,72.0,29.84,WSW,247,4.0,13.0,92,0.00,,,0.59,,2013-05-28 17:12:00,
2013-05-28 13:22:00,74.0,72.0,29.84,WSW,247,4.0,13.0,92,0.00,,,0.59,,2013-05-28 17:22:00,
2013-05-28 13:32:00,75.0,73.0,29.83,SSW,202,4.0,11.0,92,0.00,,,0.59,,2013-05-28 17:32:00,
2013-05-28 13:42:00,75.0,73.0,29.83,SW,225,5.0,9.0,92,0.00,,,0.57,,2013-05-28 17:42:00,
2013-05-28 13:52:00,75.0,73.0,29.83,SW,225,5.0,9.0,92,0.00,,,0.57,,2013-05-28 17:52:00,
2013-05-28 14:01:00,76.0,74.0,29.81,West,270,4.0,9.0,93,0.00,,,0.55,,2013-05-28 18:01:00,
2013-05-28 14:11:00,76.0,74.0,29.81,West,270,4.0,9.0,93,0.00,,,0.55,,2013-05-28 18:11:00,
2013-05-28 14:21:00,75.0,72.0,29.81,SSW,202,5.0,9.0,91,0.00,,,0.55,,2013-05-28 18:21:00,
2013-05-28 14:32:00,75.0,73.0,29.82,SW,225,6.0,8.0,92,0.00,,,0.54,,2013-05-28 18:32:00,
2013-05-28 14:42:00,76.0,74.0,29.83,WSW,247,5.0,10.0,92,0.00,,,0.53,,2013-05-28 18:42:00,
2013-05-28 14:52:00,76.0,74.0,29.83,WSW,247,5.0,10.0,92,0.00,,,0.53,,2013-05-28 18:52:00,
2013-05-28 15:01:00,76.0,74.0,29.83,SSE,157,6.0,6.0,92,0.00,,,0.50,,2013-05-28 19:01:00,
2013-05-28 15:11:00,76.0,74.0,29.83,SSE,157,6.0,6.0,92,0.00,,,0.50,,2013-05-28 19:11:00,
2013-05-28 15:21:00,77.0,74.0,29.81,West,270,6.0,10.0,89,0.00,,,0.50,,2013-05-28 19:21:00,
2013-05-28 15:32:00,76.0,73.0,29.83,SW,225,6.0,11.0,91,0.00,,,0.49,,2013-05-28 19:32:00,
2013-05-28 15:42:00,76.0,73.0,29.83,SW,225,6.0,11.0,91,0.00,,,0.49,,2013-05-28 19:42:00,
2013-05-28 15:52:00,75.0,73.0,29.85,NE,45,2.0,5.0,92,0.00,,,0.49,,2013-05-28 19:52:00,
2013-05-28 16:02:00,76.0,74.0,29.85,SW,225,3.0,10.0,93,0.00,,,0.49,,2013-05-28 20:02:00,
2013-05-28 16:11:00,77.0,74.0,29.84,SSE,157,3.0,8.0,90,0.00,,,0.48,,2013-05-28 20:11:00,
2013-05-28 16:22:00,77.0,74.0,29.84,SSE,157,3.0,8.0,90,0.00,,,0.48,,2013-05-28 20:22:00,
2013-05-28 16:32:00,77.0,74.0,29.82,SW,225,5.0,14.0,90,0.00,,,0.48,,2013-05-28 20:32:00,
2013-05-28 16:42:00,77.0,74.0,29.82,SW,225,5.0,14.0,90,0.00,,,0.48,,2013-05-28 20:42:00,
2013-05-28 16:52:00,77.0,74.0,29.81,SW,225,4.0,8.0,89,0.00,,,0.48,,2013-05-28 20:52:00,
2013-05-28 17:02:00,78.0,73.0,29.81,West,270,7.0,14.0,86,0.00,,,0.47,,2013-05-28 21:02:00,
2013-05-28 17:11:00,79.0,73.0,29.80,SSE,157,5.0,11.0,83,0.00,,,0.46,,2013-05-28 21:11:00,
2013-05-28 17:21:00,79.0,73.0,29.80,SSE,157,5.0,11.0,83,0.00,,,0.46,,2013-05-28 21:21:00,
2013-05-28 17:33:00,78.0,72.0,29.81,WSW,247,5.0,11.0,83,0.00,,,0.46,,2013-05-28 21:33:00,
2013-05-28 17:43:00,78.0,72.0,29.80,SW,225,5.0,15.0,83,0.00,,,0.46,,2013-05-28 21:43:00,
2013-05-28 17:53:00,78.0,72.0,29.80,SW,225,5.0,15.0,83,0.00,,,0.46,,2013-05-28 21:53:00,
2013-05-28 18:02:00,78.0,72.0,29.81,SSW,202,6.0,11.0,83,0.00,,,0.46,,2013-05-28 22:02:00,
2013-05-28 18:12:00,78.0,72.0,29.83,South,180,8.0,13.0,83,0.00,,,0.46,,2013-05-28 22:12:00,
2013-05-28 18:22:00,78.0,72.0,29.83,South,180,8.0,13.0,83,0.00,,,0.46,,2013-05-28 22:22:00,
2013-05-28 18:33:00,78.0,72.0,29.82,SW,225,5.0,12.0,83,0.00,,,0.46,,2013-05-28 22:33:00,
2013-05-28 18:42:00,78.0,72.0,29.82,SW,225,6.0,13.0,83,0.00,,,0.46,,2013-05-28 22:42:00,
2013-05-28 18:52:00,78.0,72.0,29.82,SW,225,6.0,13.0,83,0.00,,,0.46,,2013-05-28 22:52:00,
2013-05-28 19:02:00,78.0,73.0,29.82,SW,225,4.0,9.0,85,0.00,,,0.46,,2013-05-28 23:02:00,
2013-05-28 19:11:00,79.0,73.0,29.80,WSW,247,4.0,12.0,83,0.00,,,0.46,,2013-05-28 23:11:00,
2013-05-28 19:22:00,79.0,73.0,29.80,WSW,247,4.0,12.0,83,0.00,,,0.46,,2013-05-28 23:22:00,
2013-05-28 19:32:00,78.0,73.0,29.81,WSW,247,5.0,9.0,85,0.00,,,0.46,,2013-05-28 23:32:00,
2013-05-28 19:42:00,78.0,73.0,29.81,WSW,247,5.0,9.0,85,0.00,,,0.46,,2013-05-28 23:42:00,
2013-05-28 19:52:00,77.0,73.0,29.81,West,270,3.0,10.0,87,0.00,,,0.46,,2013-05-28 23:52:00,
2013-05-28 20:02:00,77.0,73.0,29.81,South,180,2.0,6.0,88,0.00,,,0.46,,2013-05-29 00:02:00,
2013-05-28 20:11:00,77.0,73.0,29.81,South,180,2.0,6.0,88,0.00,,,0.46,,2013-05-29 00:11:00,
2013-05-28 20:21:00,77.0,73.0,29.84,West,270,4.0,8.0,88,0.00,,,0.46,,2013-05-29 00:21:00,
2013-05-28 20:32:00,76.0,73.0,29.81,West,270,3.0,3.0,90,0.00,,,0.46,,2013-05-29 00:32:00,
2013-05-28 20:42:00,76.0,73.0,29.81,West,270,3.0,3.0,90,0.00,,,0.46,,2013-05-29 00:42:00,
2013-05-28 20:52:00,76.0,73.0,29.81,SW,225,2.0,6.0,90,0.00,,,0.46,,2013-05-29 00:52:00,
2013-05-28 21:01:00,76.0,73.0,29.82,SW,225,3.0,7.0,91,0.00,,,0.46,,2013-05-29 01:01:00,
2013-05-28 21:11:00,75.0,72.0,29.82,SW,225,3.0,10.0,90,0.00,,,0.46,,2013-05-29 01:11:00,
2013-05-28 21:22:00,75.0,72.0,29.82,SW,225,3.0,10.0,90,0.00,,,0.46,,2013-05-29 01:22:00,
2013-05-28 21:32:00,75.0,72.0,29.81,SE,135,2.0,4.0,90,0.00,,,0.46,,2013-05-29 01:32:00,
2013-05-28 21:42:00,75.0,72.0,29.81,SE,135,2.0,4.0,90,0.00,,,0.46,,2013-05-29 01:42:00,
2013-05-28 21:52:00,75.0,72.0,29.81,SSW,202,3.0,5.0,91,0.00,,,0.46,,2013-05-29 01:52:00,
2013-05-28 22:02:00,75.0,72.0,29.83,West,270,3.0,8.0,91,0.00,,,0.45,,2013-05-29 02:02:00,
2013-05-28 22:12:00,74.0,71.0,29.83,West,270,2.0,9.0,91,0.00,,,0.42,,2013-05-29 02:12:00,
2013-05-28 22:21:00,74.0,71.0,29.83,West,270,2.0,9.0,91,0.00,,,0.42,,2013-05-29 02:21:00,
2013-05-28 22:32:00,74.0,72.0,29.83,SW,225,1.0,4.0,92,0.00,,,0.36,,2013-05-29 02:32:00,
2013-05-28 22:42:00,74.0,71.0,29.83,SW,225,2.0,7.0,91,0.00,,,0.36,,2013-05-29 02:42:00,
2013-05-28 22:52:00,74.0,71.0,29.83,SW,225,2.0,7.0,91,0.00,,,0.36,,2013-05-29 02:52:00,
2013-05-28 23:02:00,74.0,71.0,29.85,SW,225,3.0,6.0,91,0.00,,,0.36,,2013-05-29 03:02:00,
2013-05-28 23:12:00,74.0,71.0,29.85,SW,225,3.0,6.0,91,0.00,,,0.36,,2013-05-29 03:12:00,
2013-05-28 23:21:00,74.0,71.0,29.85,SW,225,2.0,3.0,90,0.00,,,0.35,,2013-05-29 03:21:00,
2013-05-28 23:33:00,74.0,71.0,29.85,SSW,202,3.0,10.0,90,0.00,,,0.34,,2013-05-29 03:33:00,
2013-05-28 23:43:00,74.0,71.0,29.85,SSW,202,3.0,10.0,90,0.00,,,0.34,,2013-05-29 03:43:00,
2013-05-28 23:53:00,74.0,71.0,29.84,WSW,247,3.0,8.0,89,0.00,,,0.34,,2013-05-29 03:53:00,